Tracking 17154 objects as of 31-July-2015
HD Live streaming from Space Station

YAMAL 202

Track YAMAL 202 now!
YAMAL 202 is classified as:


NORAD ID: 28089
Int'l Code: 2003-053A
Perigee: 35,780.8 km
Apogee: 35,805.0 km
Inclination: 0.0 °
Period: 1,436.1 minutes
Semi major axis: 42163 km
RCS: 0.003 m2 (small)
Launch date: November 24, 2003
Source: Commonwealth of Independent States (former USSR) (CIS)

18 C-band; provide communications for gas corporation operations throughout Eurasian continent.
Your satellite tracking list
Your tracking list is empty





NASA's NSSDC Master Catalog

Two Line Element Set (TLE):
1 28089U 03053A   15207.96108527  .00000116  00000-0  00000+0 0  9998
2 28089 000.0071 317.8225 0002863 184.3460 197.1812 01.00274745 42780

Source of the keplerian elements: AFSPC

N2YO: 235